Weather in Sao Jorge

Portugal     39°37′55″N   8°50′56″W
temp.,
°C
wind,
m/s
gust,
m/s
humid.,
%
clouds,
%
prec.,
mm/h
press.,
hPa
HPBL,
m
9 march, tue
tue900:00+6nne12900 0.0 101931
03:00+6ene22810 0.0 101827
06:00+5nne12740 0.0 101923
09:00+10ne12590 0.0 1021150
12:00+15nne23391 0.0 10211323
15:00+15nnw56450 0.0 10201270
18:00+10nnw497531 0.0 1020497
21:00+6n129689 0.0 102354
10 march, wed
wed1000:00+5nnw119563 0.0 102329
03:00+5nnw11960 0.0 102326
06:00+4nnw01960 0.0 102428
09:00+10nnw138154 0.0 1025271
12:00+15nnw335056 0.0 1025760
15:00+15nw456137 0.0 1025716
18:00+12nw358550 0.0 1024324
21:00+9w1197100 0.0 102729
11 march, thu
thu1100:00+9wsw1198100 0.0 102723
03:00+10sw119698 0.0 102624
06:00+11sw119099 0.0 102626
09:00+13sw238693 0.1 1027295
12:00+16w346992 0.2 1027946
15:00+16w456697 0.0 10261056
18:00+13wnw268398 0.1 1026525
21:00+12w249299 0.1 1027121
12 march, fri
fri1200:00+10sw119779 0.1 102622
03:00+9wsw119664 0.0 102522
06:00+11sw139480 0.0 1025112
09:00+13nnw3691100 0.4 1026527
12:00+15nnw457399 0.6 10261000
15:00+14nnw565573 0.0 10241121
18:00+11nnw486939 0.0 1024797
21:00+7nnw288764 0.0 1025274
13 march, sat
sat1300:00+6nnw289449 0.0 1026256
03:00+6nnw25971 0.0 1025151
06:00+5n259742 0.0 1025129
09:00+9n3878100 0.0 1026600
12:00+14nnw566058 0.0 10261010
15:00+14nnw68571 0.0 10241050
18:00+11nnw598026 0.0 1024841
21:00+7n3108810 0.0 1026344